This demonstration page uses our WeatherBlox Daily Observations layout. Learn more.

Left ArrowRight Arrow

Hourly Observations for January 31, 2019

Temp ( °F °C ) Dew Point ( °F °C ) Humidity (%) Winds ( mph kmh ) Pressure ( in mb ) Visibility ( mi km ) Precip ( " mm )
12:59 am 00:59 Mostly Clear 23 -5 9 -12.8 55 55 N 14 22 30.32 1027 10 16 0.00 0.00
1:59 am 01:59 Mostly Clear 22 -5.6 7 -13.9 52 52 N 13 20 30.35 1028 10 16 0.00 0.00
2:59 am 02:59 Mostly Clear 21 -6.1 7 -13.9 54 54 N 13 20 30.38 1029 10 16 0.00 0.00
3:59 am 03:59 Mostly Clear 21 -6.1 4 -15.6 47 47 N 12 19 30.39 1029 10 16 0.00 0.00
4:59 am 04:59 Mostly Clear 21 -6.1 2 -16.7 43 43 N 12 19 30.42 1030 10 16 0.00 0.00
5:59 am 05:59 Mostly Clear 20 -6.7 0 -17.8 41 41 N 7 11 30.45 1031 10 16 0.00 0.00
6:59 am 06:59 Clear 19 -7.2 -5 -20.6 34 34 N 7 11 30.47 1032 10 16 0.00 0.00
7:59 am 07:59 Sunny 22 -5.6 1 -17.2 40 40 NNW 5 7 30.49 1032 10 16 0.00 0.00
8:59 am 08:59 Sunny 25 -3.9 -3 -19.4 29 29 N 6 9 30.50 1033 10 16 0.00 0.00
9:59 am 09:59 Sunny 25 -3.9 -1 -18.3 32 32 NNW 5 7 30.51 1033 10 16 0.00 0.00
10:59 am 10:59 Sunny 26 -3.3 -3 -19.4 28 28 NNW 5 7 30.51 1033 10 16 0.00 0.00
11:59 am 11:59 Mostly Sunny 27 -2.8 -1 -18.3 29 29 N 3 6 30.48 1032 10 16 0.00 0.00
12:59 pm 12:59 Mostly Sunny 28 -2.2 0 -17.8 29 29 NNE 5 7 30.45 1031 10 16 0.00 0.00
1:59 pm 13:59 Mostly Sunny 31 -0.6 5 -15 33 33 NNE 6 9 30.43 1031 10 16 0.00 0.00
2:59 pm 14:59 Partly Cloudy 29 -1.7 7 -13.9 39 39 NE 5 7 30.42 1030 10 16 0.00 0.00
3:59 pm 15:59 Mostly Cloudy 30 -1.1 9 -12.8 41 41 NE 5 7 30.42 1030 10 16 0.00 0.00
4:59 pm 16:59 Partly Cloudy 29 -1.7 11 -11.7 47 47 ENE 6 9 30.42 1030 10 16 0.00 0.00
5:59 pm 17:59 Partly Cloudy 27 -2.8 11 -11.7 51 51 ESE 6 9 30.42 1030 10 16 0.00 0.00
6:59 pm 18:59 Partly Cloudy 27 -2.8 10 -12.2 49 49 SE 8 13 30.43 1031 10 16 0.00 0.00
7:59 pm 19:59 Partly Cloudy 26 -3.3 13 -10.6 57 57 SSE 5 7 30.44 1031 10 16 0.00 0.00
8:59 pm 20:59 Partly Cloudy 27 -2.8 14 -10 58 58 SSE 6 9 30.44 1031 10 16 0.00 0.00
9:59 pm 21:59 Partly Cloudy 26 -3.3 15 -9.4 63 63 SSE 5 7 30.44 1031 10 16 0.00 0.00
10:59 pm 22:59 Mostly Cloudy 27 -2.8 16 -8.9 63 63 SE 5 7 30.44 1031 10 16 0.00 0.00
11:59 pm 23:59 Mostly Cloudy 27 -2.8 16 -8.9 63 63 SSE 5 7 30.42 1030 10 16 0.00 0.00

Powered by AerisWeather